Regional Weather Roundup
Issued by NWS Tampa Bay Area, FL

Home | Current Version | Previous Version | Text Only | Print | Product List | Glossary On
Versions: 1 2 3 4 5 6 7 8 9 10 11 12 13 14 15 16 17 18 19 20 21 22 23 24 25 26 27
000
NZUS99 KTBW 310516
RWRTBW
Regional Weather Roundup National Weather Service Ruskin Florida
100 AM EDT SAT JUL 31 2021


CITY           SKY/WX    TMP DP  RH WIND       PRES   REMARKS
Cross City     PTCLDY    78  77  95 CALM      30.05S
Williston      FAIR      76  75  97 CALM      30.06R
Gainesville    PTCLDY    77  76  96 CALM      30.08R
Ocala          PTCLDY    78  77  96 CALM      30.06S
Inverness      FAIR      77  77 100 CALM      30.06F
Leesburg       MOCLDY    81  75  82 SW5       30.07S
Orlando        MOCLDY    83  75  77 SW5       30.06F
Brooksville    MOCLDY    77  74  90 S5        30.07S
Zephyrhills    CLEAR     77  74  93 MISG      30.08F
Lakeland       MOCLDY    77  73  88 SW6       30.08F
Winter Haven   MOCLDY    80  74  81 SW3       30.09S
Bartow         FAIR      77  75  94 CALM      30.08F

CITY           SKY/WX    TMP DP  RH WIND       PRES   REMARKS
Tampa Intl     MOCLDY    84  76  76 SW6       30.08S
Tampa Exec     MOCLDY    79  75  89 CALM      30.08S
MacDill AFB    MOCLDY    83  69  62 W5        30.04S
Peter O Knight CLOUDY    82  77  83 CALM      30.08S
Plant City     MOCLDY    81  77  89 SW3       30.10S
Clearwater     MOCLDY    83  75  77 SW5       30.07S
St Petersburg  MOCLDY    84  76  76 SW5       30.05F
Sarasota       PTCLDY    84  76  76 W7        30.05F
Sebring        FAIR      79  75  88 W7        30.08S
Punta Gorda    CLEAR     79  76  90 CALM      30.08F
Ft Myers       CLEAR     83  75  77 CALM      30.06F
Ft Myers-RSW   CLEAR     81  73  76 CALM      30.07F
Naples         CLEAR     82  77  84 SE3       30.07F

STATION/POSITION SKY/WX   TEMP WIND        PRES    VSBY
                          AIR  DIR/SP/G
                          (F)  (DEG/KT/KT) (MB)    (MI)
Keaton Beach               85  230/ 11/ 12 1017.0F
Sand Key                   84  120/ 12/ 15 1019.0
039 Panama City            85  280/  8/ 10 1017.7F
036 Bayport                83  230/ 10/ 12 1016.8S
003 Captiva                85   CALM  /  2 1017.2
Venice                     84  270/  4/  5 1018.0F
Cedar Key                  84  250/  8/ 12 1017.5F

CITY           SKY/WX    TMP DP  RH WIND       PRES   REMARKS
Tallahassee    CLEAR     80  76  87 CALM      30.02F
Daytona Beach  PTCLDY    79  75  87 CALM      30.05S
Melbourne      MOCLDY    81  76  84 SW5       30.05F
W Palm Beach   MOCLDY    83  76  79 S5        30.08F
Miami          PTCLDY    84  76  76 CALM      30.09F
Key West       PTCLDY    85  75  72 E12       30.08S
Cancun, MX     PTCLDY    84  79  84 E8        30.06S HX  96




USA.gov is the U.S. government's official web portal to all federal, state and local government web resources and services.